owner,sensor,date,latitude,longitude,vertical_datum,sea_water_practical_salinity,qcFlag 
ENP,ioos.station.NOAA.NDBC:LMDF1:1,2017-10-01T00:00:00Z,25.1760,-80.6330,1.5,20.5,1111122 
ENP,ioos.station.NOAA.NDBC:LMDF1:1,2017-10-01T01:00:00Z,25.1760,-80.6330,1.5,21.1,1111122 
ENP,ioos.station.NOAA.NDBC:LMDF1:1,2017-10-01T03:00:00Z,25.1760,-80.6330,1.5,20.68,1111122 
ENP,ioos.station.NOAA.NDBC:LMDF1:1,2017-10-01T04:00:00Z,25.1760,-80.6330,1.5,20.94,1111122 
ENP,ioos.station.NOAA.NDBC:LMDF1:1,2017-10-01T06:00:00Z,25.1760,-80.6330,1.5,20.26,1111122 
ENP,ioos.station.NOAA.NDBC:LMDF1:1,2017-10-01T07:00:00Z,25.1760,-80.6330,1.5,20.24,1111122 
ENP,ioos.station.NOAA.NDBC:LMDF1:1,2017-10-01T08:00:00Z,25.1760,-80.6330,1.5,20.29,1111122 
ENP,ioos.station.NOAA.NDBC:LMDF1:1,2017-10-01T09:00:00Z,25.1760,-80.6330,1.5,20.76,1111122 
ENP,ioos.station.NOAA.NDBC:LMDF1:1,2017-10-01T12:00:00Z,25.1760,-80.6330,1.5,18.63,1111122 
ENP,ioos.station.NOAA.NDBC:LMDF1:1,2017-10-01T13:00:00Z,25.1760,-80.6330,1.5,19.23,1111122 
ENP,ioos.station.NOAA.NDBC:LMDF1:1,2017-10-01T14:00:00Z,25.1760,-80.6330,1.5,20.23,1111122 
ENP,ioos.station.NOAA.NDBC:LMDF1:1,2017-10-01T15:00:00Z,25.1760,-80.6330,1.5,20.22,1111122 
ENP,ioos.station.NOAA.NDBC:LMDF1:1,2017-10-01T16:00:00Z,25.1760,-80.6330,1.5,20.32,1111122 
ENP,ioos.station.NOAA.NDBC:LMDF1:1,2017-10-01T17:00:00Z,25.1760,-80.6330,1.5,16.49,1111122 
ENP,ioos.station.NOAA.NDBC:LMDF1:1,2017-10-01T18:00:00Z,25.1760,-80.6330,1.5,19.63,1111122 
ENP,ioos.station.NOAA.NDBC:LMDF1:1,2017-10-01T19:00:00Z,25.1760,-80.6330,1.5,19.42,1111122 
ENP,ioos.station.NOAA.NDBC:LMDF1:1,2017-10-01T20:00:00Z,25.1760,-80.6330,1.5,19.39,1111122 
ENP,ioos.station.NOAA.NDBC:LMDF1:1,2017-10-01T21:00:00Z,25.1760,-80.6330,1.5,19.52,1111122 
ENP,ioos.station.NOAA.NDBC:LMDF1:1,2017-10-01T22:00:00Z,25.1760,-80.6330,1.5,19.82,1111122 
ENP,ioos.station.NOAA.NDBC:LMDF1:1,2017-10-01T23:00:00Z,25.1760,-80.6330,1.5,19.58,1111122 
ENP,ioos.station.NOAA.NDBC:LMDF1:1,2017-10-02T00:00:00Z,25.1760,-80.6330,1.5,19.18,1111122 
ENP,ioos.station.NOAA.NDBC:LMDF1:1,2017-10-02T01:00:00Z,25.1760,-80.6330,1.5,19.66,1111122 
ENP,ioos.station.NOAA.NDBC:LMDF1:1,2017-10-02T03:00:00Z,25.1760,-80.6330,1.5,18.34,1111122 
ENP,ioos.station.NOAA.NDBC:LMDF1:1,2017-10-02T04:00:00Z,25.1760,-80.6330,1.5,16.71,1111122 
ENP,ioos.station.NOAA.NDBC:LMDF1:1,2017-10-02T05:00:00Z,25.1760,-80.6330,1.5,15.42,1111122 
ENP,ioos.station.NOAA.NDBC:LMDF1:1,2017-10-02T07:00:00Z,25.1760,-80.6330,1.5,18.05,1111122 
ENP,ioos.station.NOAA.NDBC:LMDF1:1,2017-10-02T08:00:00Z,25.1760,-80.6330,1.5,13.63,1111122 
ENP,ioos.station.NOAA.NDBC:LMDF1:1,2017-10-02T09:00:00Z,25.1760,-80.6330,1.5,16.75,1111122 
ENP,ioos.station.NOAA.NDBC:LMDF1:1,2017-10-02T10:00:00Z,25.1760,-80.6330,1.5,18.28,1111122 
ENP,ioos.station.NOAA.NDBC:LMDF1:1,2017-10-02T12:00:00Z,25.1760,-80.6330,1.5,18.01,1111122 
ENP,ioos.station.NOAA.NDBC:LMDF1:1,2017-10-02T13:00:00Z,25.1760,-80.6330,1.5,18.0,1111122 
ENP,ioos.station.NOAA.NDBC:LMDF1:1,2017-10-02T14:00:00Z,25.1760,-80.6330,1.5,17.65,1111122 
ENP,ioos.station.NOAA.NDBC:LMDF1:1,2017-10-02T15:00:00Z,25.1760,-80.6330,1.5,17.18,1111122 
ENP,ioos.station.NOAA.NDBC:LMDF1:1,2017-10-02T16:00:00Z,25.1760,-80.6330,1.5,18.02,1111122 
ENP,ioos.station.NOAA.NDBC:LMDF1:1,2017-10-02T17:00:00Z,25.1760,-80.6330,1.5,16.45,1111122 
ENP,ioos.station.NOAA.NDBC:LMDF1:1,2017-10-02T18:00:00Z,25.1760,-80.6330,1.5,17.46,1111122 
ENP,ioos.station.NOAA.NDBC:LMDF1:1,2017-10-02T19:00:00Z,25.1760,-80.6330,1.5,13.97,1111122 
ENP,ioos.station.NOAA.NDBC:LMDF1:1,2017-10-02T20:00:00Z,25.1760,-80.6330,1.5,17.15,1111122 
ENP,ioos.station.NOAA.NDBC:LMDF1:1,2017-10-02T21:00:00Z,25.1760,-80.6330,1.5,17.0,1111122 
ENP,ioos.station.NOAA.NDBC:LMDF1:1,2017-10-02T22:00:00Z,25.1760,-80.6330,1.5,16.67,1111122 
ENP,ioos.station.NOAA.NDBC:LMDF1:1,2017-10-02T23:00:00Z,25.1760,-80.6330,1.5,12.54,1111122 
ENP,ioos.station.NOAA.NDBC:LMDF1:1,2017-10-03T00:00:00Z,25.1760,-80.6330,1.5,16.29,1111122 
ENP,ioos.station.NOAA.NDBC:LMDF1:1,2017-10-03T01:00:00Z,25.1760,-80.6330,1.5,12.4,1111122 
ENP,ioos.station.NOAA.NDBC:LMDF1:1,2017-10-03T03:00:00Z,25.1760,-80.6330,1.5,11.8,1111122 
ENP,ioos.station.NOAA.NDBC:LMDF1:1,2017-10-03T04:00:00Z,25.1760,-80.6330,1.5,17.5,1111122 
ENP,ioos.station.NOAA.NDBC:LMDF1:1,2017-10-03T05:00:00Z,25.1760,-80.6330,1.5,14.98,1111122 
ENP,ioos.station.NOAA.NDBC:LMDF1:1,2017-10-03T07:00:00Z,25.1760,-80.6330,1.5,13.57,1111122 
ENP,ioos.station.NOAA.NDBC:LMDF1:1,2017-10-03T08:00:00Z,25.1760,-80.6330,1.5,16.1,1111122 
ENP,ioos.station.NOAA.NDBC:LMDF1:1,2017-10-03T09:00:00Z,25.1760,-80.6330,1.5,16.73,1111122 
ENP,ioos.station.NOAA.NDBC:LMDF1:1,2017-10-03T12:00:00Z,25.1760,-80.6330,1.5,16.64,1111122 
ENP,ioos.station.NOAA.NDBC:LMDF1:1,2017-10-03T13:00:00Z,25.1760,-80.6330,1.5,17.26,1111122 
ENP,ioos.station.NOAA.NDBC:LMDF1:1,2017-10-03T14:00:00Z,25.1760,-80.6330,1.5,17.56,1111122 
ENP,ioos.station.NOAA.NDBC:LMDF1:1,2017-10-03T15:00:00Z,25.1760,-80.6330,1.5,17.26,1111122 
ENP,ioos.station.NOAA.NDBC:LMDF1:1,2017-10-03T16:00:00Z,25.1760,-80.6330,1.5,17.3,1111122 
ENP,ioos.station.NOAA.NDBC:LMDF1:1,2017-10-03T17:00:00Z,25.1760,-80.6330,1.5,17.75,1111122 
ENP,ioos.station.NOAA.NDBC:LMDF1:1,2017-10-03T18:00:00Z,25.1760,-80.6330,1.5,17.58,1111122 
ENP,ioos.station.NOAA.NDBC:LMDF1:1,2017-10-03T19:00:00Z,25.1760,-80.6330,1.5,17.83,1111122 
ENP,ioos.station.NOAA.NDBC:LMDF1:1,2017-10-03T20:00:00Z,25.1760,-80.6330,1.5,16.55,1111122 
ENP,ioos.station.NOAA.NDBC:LMDF1:1,2017-10-03T21:00:00Z,25.1760,-80.6330,1.5,18.3,1111122 
ENP,ioos.station.NOAA.NDBC:LMDF1:1,2017-10-03T22:00:00Z,25.1760,-80.6330,1.5,16.24,1111122 
ENP,ioos.station.NOAA.NDBC:LMDF1:1,2017-10-03T23:00:00Z,25.1760,-80.6330,1.5,16.79,1111122 
ENP,ioos.station.NOAA.NDBC:LMDF1:1,2017-10-04T00:00:00Z,25.1760,-80.6330,1.5,13.44,1111122 
ENP,ioos.station.NOAA.NDBC:LMDF1:1,2017-10-04T01:00:00Z,25.1760,-80.6330,1.5,9.15,1111122 
ENP,ioos.station.NOAA.NDBC:LMDF1:1,2017-10-04T03:00:00Z,25.1760,-80.6330,1.5,16.0,1111122 
ENP,ioos.station.NOAA.NDBC:LMDF1:1,2017-10-04T04:00:00Z,25.1760,-80.6330,1.5,11.91,1111122 
ENP,ioos.station.NOAA.NDBC:LMDF1:1,2017-10-04T06:00:00Z,25.1760,-80.6330,1.5,13.78,1111122 
ENP,ioos.station.NOAA.NDBC:LMDF1:1,2017-10-04T07:00:00Z,25.1760,-80.6330,1.5,14.66,1111122 
ENP,ioos.station.NOAA.NDBC:LMDF1:1,2017-10-04T08:00:00Z,25.1760,-80.6330,1.5,12.67,1111122 
ENP,ioos.station.NOAA.NDBC:LMDF1:1,2017-10-04T09:00:00Z,25.1760,-80.6330,1.5,10.75,1111122 
ENP,ioos.station.NOAA.NDBC:LMDF1:1,2017-10-04T10:00:00Z,25.1760,-80.6330,1.5,15.18,1111122 
ENP,ioos.station.NOAA.NDBC:LMDF1:1,2017-10-04T12:00:00Z,25.1760,-80.6330,1.5,14.48,1111122 
ENP,ioos.station.NOAA.NDBC:LMDF1:1,2017-10-04T13:00:00Z,25.1760,-80.6330,1.5,15.68,1111122 
ENP,ioos.station.NOAA.NDBC:LMDF1:1,2017-10-04T14:00:00Z,25.1760,-80.6330,1.5,15.92,1111122 
ENP,ioos.station.NOAA.NDBC:LMDF1:1,2017-10-04T15:00:00Z,25.1760,-80.6330,1.5,15.84,1111122 
ENP,ioos.station.NOAA.NDBC:LMDF1:1,2017-10-04T16:00:00Z,25.1760,-80.6330,1.5,15.7,1111122 
ENP,ioos.station.NOAA.NDBC:LMDF1:1,2017-10-04T17:00:00Z,25.1760,-80.6330,1.5,10.91,1111122 
ENP,ioos.station.NOAA.NDBC:LMDF1:1,2017-10-04T18:00:00Z,25.1760,-80.6330,1.5,13.4,1111122 
ENP,ioos.station.NOAA.NDBC:LMDF1:1,2017-10-04T19:00:00Z,25.1760,-80.6330,1.5,14.17,1111122 
ENP,ioos.station.NOAA.NDBC:LMDF1:1,2017-10-04T20:00:00Z,25.1760,-80.6330,1.5,10.92,1111122 
ENP,ioos.station.NOAA.NDBC:LMDF1:1,2017-10-04T21:00:00Z,25.1760,-80.6330,1.5,10.43,1111122 
ENP,ioos.station.NOAA.NDBC:LMDF1:1,2017-10-04T22:00:00Z,25.1760,-80.6330,1.5,13.33,1111122 
ENP,ioos.station.NOAA.NDBC:LMDF1:1,2017-10-04T23:00:00Z,25.1760,-80.6330,1.5,12.48,1111122 
ENP,ioos.station.NOAA.NDBC:LMDF1:1,2017-10-05T00:00:00Z,25.1760,-80.6330,1.5,8.9,1111122 
ENP,ioos.station.NOAA.NDBC:LMDF1:1,2017-10-05T01:00:00Z,25.1760,-80.6330,1.5,9.04,1111122 
ENP,ioos.station.NOAA.NDBC:LMDF1:1,2017-10-05T03:00:00Z,25.1760,-80.6330,1.5,12.71,1111122 
ENP,ioos.station.NOAA.NDBC:LMDF1:1,2017-10-05T04:00:00Z,25.1760,-80.6330,1.5,11.56,1111122 
ENP,ioos.station.NOAA.NDBC:LMDF1:1,2017-10-05T06:00:00Z,25.1760,-80.6330,1.5,11.54,1111122 
ENP,ioos.station.NOAA.NDBC:LMDF1:1,2017-10-05T07:00:00Z,25.1760,-80.6330,1.5,12.0,1111122 
ENP,ioos.station.NOAA.NDBC:LMDF1:1,2017-10-05T08:00:00Z,25.1760,-80.6330,1.5,10.98,1111122 
ENP,ioos.station.NOAA.NDBC:LMDF1:1,2017-10-05T09:00:00Z,25.1760,-80.6330,1.5,9.27,1111122 
ENP,ioos.station.NOAA.NDBC:LMDF1:1,2017-10-05T11:00:00Z,25.1760,-80.6330,1.5,10.93,1111122 
ENP,ioos.station.NOAA.NDBC:LMDF1:1,2017-10-05T13:00:00Z,25.1760,-80.6330,1.5,11.0,1111122 
ENP,ioos.station.NOAA.NDBC:LMDF1:1,2017-10-05T14:00:00Z,25.1760,-80.6330,1.5,11.91,1111122 
ENP,ioos.station.NOAA.NDBC:LMDF1:1,2017-10-05T15:00:00Z,25.1760,-80.6330,1.5,12.82,1111122 
ENP,ioos.station.NOAA.NDBC:LMDF1:1,2017-10-05T16:00:00Z,25.1760,-80.6330,1.5,11.05,1111122 
ENP,ioos.station.NOAA.NDBC:LMDF1:1,2017-10-05T17:00:00Z,25.1760,-80.6330,1.5,12.76,1111122 
ENP,ioos.station.NOAA.NDBC:LMDF1:1,2017-10-05T18:00:00Z,25.1760,-80.6330,1.5,13.96,1111122 
ENP,ioos.station.NOAA.NDBC:LMDF1:1,2017-10-05T19:00:00Z,25.1760,-80.6330,1.5,13.59,1111122 
ENP,ioos.station.NOAA.NDBC:LMDF1:1,2017-10-05T20:00:00Z,25.1760,-80.6330,1.5,14.06,1111122 
ENP,ioos.station.NOAA.NDBC:LMDF1:1,2017-10-05T21:00:00Z,25.1760,-80.6330,1.5,14.0,1111122 
ENP,ioos.station.NOAA.NDBC:LMDF1:1,2017-10-05T22:00:00Z,25.1760,-80.6330,1.5,13.95,1111122 
ENP,ioos.station.NOAA.NDBC:LMDF1:1,2017-10-05T23:00:00Z,25.1760,-80.6330,1.5,12.32,1111122 
ENP,ioos.station.NOAA.NDBC:LMDF1:1,2017-10-06T00:00:00Z,25.1760,-80.6330,1.5,14.17,1111122 
ENP,ioos.station.NOAA.NDBC:LMDF1:1,2017-10-06T01:00:00Z,25.1760,-80.6330,1.5,14.56,1111122 
ENP,ioos.station.NOAA.NDBC:LMDF1:1,2017-10-06T03:00:00Z,25.1760,-80.6330,1.5,14.62,1111122 
ENP,ioos.station.NOAA.NDBC:LMDF1:1,2017-10-06T04:00:00Z,25.1760,-80.6330,1.5,14.78,1111122 
ENP,ioos.station.NOAA.NDBC:LMDF1:1,2017-10-06T06:00:00Z,25.1760,-80.6330,1.5,15.78,1111122 
ENP,ioos.station.NOAA.NDBC:LMDF1:1,2017-10-06T07:00:00Z,25.1760,-80.6330,1.5,15.17,1111122 
ENP,ioos.station.NOAA.NDBC:LMDF1:1,2017-10-06T08:00:00Z,25.1760,-80.6330,1.5,15.58,1111122 
ENP,ioos.station.NOAA.NDBC:LMDF1:1,2017-10-06T09:00:00Z,25.1760,-80.6330,1.5,14.72,1111122 
ENP,ioos.station.NOAA.NDBC:LMDF1:1,2017-10-06T10:00:00Z,25.1760,-80.6330,1.5,15.7,1111122 
ENP,ioos.station.NOAA.NDBC:LMDF1:1,2017-10-06T12:00:00Z,25.1760,-80.6330,1.5,15.82,1111122 
ENP,ioos.station.NOAA.NDBC:LMDF1:1,2017-10-06T13:00:00Z,25.1760,-80.6330,1.5,16.06,1111122 
ENP,ioos.station.NOAA.NDBC:LMDF1:1,2017-10-06T14:00:00Z,25.1760,-80.6330,1.5,15.62,1111122 
ENP,ioos.station.NOAA.NDBC:LMDF1:1,2017-10-06T15:00:00Z,25.1760,-80.6330,1.5,15.46,1111122 
ENP,ioos.station.NOAA.NDBC:LMDF1:1,2017-10-06T16:00:00Z,25.1760,-80.6330,1.5,15.42,1111122 
ENP,ioos.station.NOAA.NDBC:LMDF1:1,2017-10-06T17:00:00Z,25.1760,-80.6330,1.5,15.48,1111122 
ENP,ioos.station.NOAA.NDBC:LMDF1:1,2017-10-06T18:00:00Z,25.1760,-80.6330,1.5,15.65,1111122 
ENP,ioos.station.NOAA.NDBC:LMDF1:1,2017-10-06T19:00:00Z,25.1760,-80.6330,1.5,14.12,1111122 
ENP,ioos.station.NOAA.NDBC:LMDF1:1,2017-10-06T20:00:00Z,25.1760,-80.6330,1.5,15.46,1111122 
ENP,ioos.station.NOAA.NDBC:LMDF1:1,2017-10-06T21:00:00Z,25.1760,-80.6330,1.5,11.85,1111122 
ENP,ioos.station.NOAA.NDBC:LMDF1:1,2017-10-06T22:00:00Z,25.1760,-80.6330,1.5,15.48,1111122 
ENP,ioos.station.NOAA.NDBC:LMDF1:1,2017-10-06T23:00:00Z,25.1760,-80.6330,1.5,14.41,1111122 
ENP,ioos.station.NOAA.NDBC:LMDF1:1,2017-10-07T00:00:00Z,25.1760,-80.6330,1.5,15.46,1111122 
ENP,ioos.station.NOAA.NDBC:LMDF1:1,2017-10-07T01:00:00Z,25.1760,-80.6330,1.5,15.67,1111122 
ENP,ioos.station.NOAA.NDBC:LMDF1:1,2017-10-07T03:00:00Z,25.1760,-80.6330,1.5,14.43,1111122 
ENP,ioos.station.NOAA.NDBC:LMDF1:1,2017-10-07T04:00:00Z,25.1760,-80.6330,1.5,14.95,1111122 
ENP,ioos.station.NOAA.NDBC:LMDF1:1,2017-10-07T06:00:00Z,25.1760,-80.6330,1.5,15.32,1111122 
ENP,ioos.station.NOAA.NDBC:LMDF1:1,2017-10-07T07:00:00Z,25.1760,-80.6330,1.5,15.28,1111122 
ENP,ioos.station.NOAA.NDBC:LMDF1:1,2017-10-07T08:00:00Z,25.1760,-80.6330,1.5,14.43,1111122 
ENP,ioos.station.NOAA.NDBC:LMDF1:1,2017-10-07T09:00:00Z,25.1760,-80.6330,1.5,14.74,1111122 
ENP,ioos.station.NOAA.NDBC:LMDF1:1,2017-10-07T11:00:00Z,25.1760,-80.6330,1.5,14.73,1111122 
ENP,ioos.station.NOAA.NDBC:LMDF1:1,2017-10-07T12:00:00Z,25.1760,-80.6330,1.5,13.49,1111122 
ENP,ioos.station.NOAA.NDBC:LMDF1:1,2017-10-07T13:00:00Z,25.1760,-80.6330,1.5,14.74,1111122 
ENP,ioos.station.NOAA.NDBC:LMDF1:1,2017-10-07T14:00:00Z,25.1760,-80.6330,1.5,14.87,1111122 
ENP,ioos.station.NOAA.NDBC:LMDF1:1,2017-10-07T15:00:00Z,25.1760,-80.6330,1.5,14.56,1111122 
ENP,ioos.station.NOAA.NDBC:LMDF1:1,2017-10-07T16:00:00Z,25.1760,-80.6330,1.5,14.6,1111122 
ENP,ioos.station.NOAA.NDBC:LMDF1:1,2017-10-07T17:00:00Z,25.1760,-80.6330,1.5,14.5,1111122 
ENP,ioos.station.NOAA.NDBC:LMDF1:1,2017-10-07T18:00:00Z,25.1760,-80.6330,1.5,14.66,1111122 
ENP,ioos.station.NOAA.NDBC:LMDF1:1,2017-10-07T19:00:00Z,25.1760,-80.6330,1.5,14.64,1111122 
ENP,ioos.station.NOAA.NDBC:LMDF1:1,2017-10-07T20:00:00Z,25.1760,-80.6330,1.5,15.0,1111122 
ENP,ioos.station.NOAA.NDBC:LMDF1:1,2017-10-07T21:00:00Z,25.1760,-80.6330,1.5,14.21,1111122 
ENP,ioos.station.NOAA.NDBC:LMDF1:1,2017-10-07T22:00:00Z,25.1760,-80.6330,1.5,14.45,1111122 
ENP,ioos.station.NOAA.NDBC:LMDF1:1,2017-10-07T23:00:00Z,25.1760,-80.6330,1.5,14.37,1111122 
ENP,ioos.station.NOAA.NDBC:LMDF1:1,2017-10-08T00:00:00Z,25.1760,-80.6330,1.5,14.28,1111122 
ENP,ioos.station.NOAA.NDBC:LMDF1:1,2017-10-08T01:00:00Z,25.1760,-80.6330,1.5,14.13,1111122 
ENP,ioos.station.NOAA.NDBC:LMDF1:1,2017-10-08T03:00:00Z,25.1760,-80.6330,1.5,13.43,1111122 
ENP,ioos.station.NOAA.NDBC:LMDF1:1,2017-10-08T04:00:00Z,25.1760,-80.6330,1.5,13.63,1111122 
ENP,ioos.station.NOAA.NDBC:LMDF1:1,2017-10-08T05:00:00Z,25.1760,-80.6330,1.5,13.63,1111122 
ENP,ioos.station.NOAA.NDBC:LMDF1:1,2017-10-08T07:00:00Z,25.1760,-80.6330,1.5,15.2,1111122 
ENP,ioos.station.NOAA.NDBC:LMDF1:1,2017-10-08T08:00:00Z,25.1760,-80.6330,1.5,14.33,1111122 
ENP,ioos.station.NOAA.NDBC:LMDF1:1,2017-10-08T09:00:00Z,25.1760,-80.6330,1.5,14.23,1111122 
ENP,ioos.station.NOAA.NDBC:LMDF1:1,2017-10-08T11:00:00Z,25.1760,-80.6330,1.5,14.32,1111122 
ENP,ioos.station.NOAA.NDBC:LMDF1:1,2017-10-08T12:00:00Z,25.1760,-80.6330,1.5,13.21,1111122 
ENP,ioos.station.NOAA.NDBC:LMDF1:1,2017-10-08T13:00:00Z,25.1760,-80.6330,1.5,11.19,1111122 
ENP,ioos.station.NOAA.NDBC:LMDF1:1,2017-10-08T14:00:00Z,25.1760,-80.6330,1.5,13.81,1111122 
ENP,ioos.station.NOAA.NDBC:LMDF1:1,2017-10-08T15:00:00Z,25.1760,-80.6330,1.5,13.94,1111122 
ENP,ioos.station.NOAA.NDBC:LMDF1:1,2017-10-08T16:00:00Z,25.1760,-80.6330,1.5,13.46,1111122 
ENP,ioos.station.NOAA.NDBC:LMDF1:1,2017-10-08T17:00:00Z,25.1760,-80.6330,1.5,13.71,1111122 
ENP,ioos.station.NOAA.NDBC:LMDF1:1,2017-10-08T18:00:00Z,25.1760,-80.6330,1.5,13.23,1111122 
ENP,ioos.station.NOAA.NDBC:LMDF1:1,2017-10-08T19:00:00Z,25.1760,-80.6330,1.5,13.77,1111122 
ENP,ioos.station.NOAA.NDBC:LMDF1:1,2017-10-08T20:00:00Z,25.1760,-80.6330,1.5,13.92,1111122 
ENP,ioos.station.NOAA.NDBC:LMDF1:1,2017-10-08T21:00:00Z,25.1760,-80.6330,1.5,11.27,1111122 
ENP,ioos.station.NOAA.NDBC:LMDF1:1,2017-10-08T22:00:00Z,25.1760,-80.6330,1.5,13.42,1111122 
ENP,ioos.station.NOAA.NDBC:LMDF1:1,2017-10-08T23:00:00Z,25.1760,-80.6330,1.5,12.58,1111122 
ENP,ioos.station.NOAA.NDBC:LMDF1:1,2017-10-09T00:00:00Z,25.1760,-80.6330,1.5,12.94,1111122 
ENP,ioos.station.NOAA.NDBC:LMDF1:1,2017-10-09T01:00:00Z,25.1760,-80.6330,1.5,13.32,1111122 
ENP,ioos.station.NOAA.NDBC:LMDF1:1,2017-10-09T03:00:00Z,25.1760,-80.6330,1.5,13.69,1111122 
ENP,ioos.station.NOAA.NDBC:LMDF1:1,2017-10-09T04:00:00Z,25.1760,-80.6330,1.5,13.88,1111122 
ENP,ioos.station.NOAA.NDBC:LMDF1:1,2017-10-09T05:00:00Z,25.1760,-80.6330,1.5,14.15,1111122 
ENP,ioos.station.NOAA.NDBC:LMDF1:1,2017-10-09T07:00:00Z,25.1760,-80.6330,1.5,13.3,1111122 
ENP,ioos.station.NOAA.NDBC:LMDF1:1,2017-10-09T08:00:00Z,25.1760,-80.6330,1.5,12.94,1111122 
ENP,ioos.station.NOAA.NDBC:LMDF1:1,2017-10-09T11:00:00Z,25.1760,-80.6330,1.5,14.92,1111122 
ENP,ioos.station.NOAA.NDBC:LMDF1:1,2017-10-09T12:00:00Z,25.1760,-80.6330,1.5,14.92,1111122 
ENP,ioos.station.NOAA.NDBC:LMDF1:1,2017-10-09T13:00:00Z,25.1760,-80.6330,1.5,15.18,1111122 
ENP,ioos.station.NOAA.NDBC:LMDF1:1,2017-10-09T14:00:00Z,25.1760,-80.6330,1.5,15.14,1111122 
ENP,ioos.station.NOAA.NDBC:LMDF1:1,2017-10-09T15:00:00Z,25.1760,-80.6330,1.5,15.23,1111122 
ENP,ioos.station.NOAA.NDBC:LMDF1:1,2017-10-09T16:00:00Z,25.1760,-80.6330,1.5,15.24,1111122 
ENP,ioos.station.NOAA.NDBC:LMDF1:1,2017-10-09T17:00:00Z,25.1760,-80.6330,1.5,14.96,1111122 
ENP,ioos.station.NOAA.NDBC:LMDF1:1,2017-10-09T19:00:00Z,25.1760,-80.6330,1.5,14.72,1111122 
ENP,ioos.station.NOAA.NDBC:LMDF1:1,2017-10-09T20:00:00Z,25.1760,-80.6330,1.5,12.7,1111122 
ENP,ioos.station.NOAA.NDBC:LMDF1:1,2017-10-09T21:00:00Z,25.1760,-80.6330,1.5,12.57,1111122 
ENP,ioos.station.NOAA.NDBC:LMDF1:1,2017-10-09T22:00:00Z,25.1760,-80.6330,1.5,14.2,1111122 
ENP,ioos.station.NOAA.NDBC:LMDF1:1,2017-10-09T23:00:00Z,25.1760,-80.6330,1.5,9.58,1111122 
ENP,ioos.station.NOAA.NDBC:LMDF1:1,2017-10-10T00:00:00Z,25.1760,-80.6330,1.5,12.84,1111122 
ENP,ioos.station.NOAA.NDBC:LMDF1:1,2017-10-10T01:00:00Z,25.1760,-80.6330,1.5,12.42,1111122 
ENP,ioos.station.NOAA.NDBC:LMDF1:1,2017-10-10T03:00:00Z,25.1760,-80.6330,1.5,8.8,1111122 
ENP,ioos.station.NOAA.NDBC:LMDF1:1,2017-10-10T04:00:00Z,25.1760,-80.6330,1.5,9.94,1111122 
ENP,ioos.station.NOAA.NDBC:LMDF1:1,2017-10-10T06:00:00Z,25.1760,-80.6330,1.5,10.06,1111122 
ENP,ioos.station.NOAA.NDBC:LMDF1:1,2017-10-10T07:00:00Z,25.1760,-80.6330,1.5,9.35,1111122 
ENP,ioos.station.NOAA.NDBC:LMDF1:1,2017-10-10T08:00:00Z,25.1760,-80.6330,1.5,10.01,1111122 
ENP,ioos.station.NOAA.NDBC:LMDF1:1,2017-10-10T09:00:00Z,25.1760,-80.6330,1.5,10.59,1111122 
ENP,ioos.station.NOAA.NDBC:LMDF1:1,2017-10-10T10:00:00Z,25.1760,-80.6330,1.5,11.6,1111122 
ENP,ioos.station.NOAA.NDBC:LMDF1:1,2017-10-10T12:00:00Z,25.1760,-80.6330,1.5,12.5,1111122 
ENP,ioos.station.NOAA.NDBC:LMDF1:1,2017-10-10T13:00:00Z,25.1760,-80.6330,1.5,10.13,1111122 
ENP,ioos.station.NOAA.NDBC:LMDF1:1,2017-10-10T14:00:00Z,25.1760,-80.6330,1.5,11.26,1111122 
ENP,ioos.station.NOAA.NDBC:LMDF1:1,2017-10-10T15:00:00Z,25.1760,-80.6330,1.5,8.97,1111122 
ENP,ioos.station.NOAA.NDBC:LMDF1:1,2017-10-10T16:00:00Z,25.1760,-80.6330,1.5,8.04,1111122 
ENP,ioos.station.NOAA.NDBC:LMDF1:1,2017-10-10T17:00:00Z,25.1760,-80.6330,1.5,8.02,1111122 
ENP,ioos.station.NOAA.NDBC:LMDF1:1,2017-10-10T18:00:00Z,25.1760,-80.6330,1.5,8.05,1111122 
ENP,ioos.station.NOAA.NDBC:LMDF1:1,2017-10-10T19:00:00Z,25.1760,-80.6330,1.5,10.62,1111122 
ENP,ioos.station.NOAA.NDBC:LMDF1:1,2017-10-10T20:00:00Z,25.1760,-80.6330,1.5,8.75,1111122 
ENP,ioos.station.NOAA.NDBC:LMDF1:1,2017-10-10T21:00:00Z,25.1760,-80.6330,1.5,8.05,1111122 
ENP,ioos.station.NOAA.NDBC:LMDF1:1,2017-10-10T22:00:00Z,25.1760,-80.6330,1.5,12.14,1111122 
ENP,ioos.station.NOAA.NDBC:LMDF1:1,2017-10-10T23:00:00Z,25.1760,-80.6330,1.5,8.41,1111122 
ENP,ioos.station.NOAA.NDBC:LMDF1:1,2017-10-11T00:00:00Z,25.1760,-80.6330,1.5,11.79,1111122 
ENP,ioos.station.NOAA.NDBC:LMDF1:1,2017-10-11T01:00:00Z,25.1760,-80.6330,1.5,8.34,1111122 
ENP,ioos.station.NOAA.NDBC:LMDF1:1,2017-10-11T03:00:00Z,25.1760,-80.6330,1.5,11.63,1111122 
ENP,ioos.station.NOAA.NDBC:LMDF1:1,2017-10-11T04:00:00Z,25.1760,-80.6330,1.5,12.6,1111122 
ENP,ioos.station.NOAA.NDBC:LMDF1:1,2017-10-11T06:00:00Z,25.1760,-80.6330,1.5,12.44,1111122 
ENP,ioos.station.NOAA.NDBC:LMDF1:1,2017-10-11T07:00:00Z,25.1760,-80.6330,1.5,11.89,1111122 
ENP,ioos.station.NOAA.NDBC:LMDF1:1,2017-10-11T08:00:00Z,25.1760,-80.6330,1.5,12.82,1111122 
ENP,ioos.station.NOAA.NDBC:LMDF1:1,2017-10-11T09:00:00Z,25.1760,-80.6330,1.5,13.06,1111122 
ENP,ioos.station.NOAA.NDBC:LMDF1:1,2017-10-11T11:00:00Z,25.1760,-80.6330,1.5,13.51,1111122 
ENP,ioos.station.NOAA.NDBC:LMDF1:1,2017-10-11T14:00:00Z,25.1760,-80.6330,1.5,13.4,1111122 
ENP,ioos.station.NOAA.NDBC:LMDF1:1,2017-10-11T15:00:00Z,25.1760,-80.6330,1.5,13.34,1111122 
ENP,ioos.station.NOAA.NDBC:LMDF1:1,2017-10-11T16:00:00Z,25.1760,-80.6330,1.5,11.58,1111122 
ENP,ioos.station.NOAA.NDBC:LMDF1:1,2017-10-11T17:00:00Z,25.1760,-80.6330,1.5,12.59,1111122 
ENP,ioos.station.NOAA.NDBC:LMDF1:1,2017-10-11T18:00:00Z,25.1760,-80.6330,1.5,12.32,1111122 
ENP,ioos.station.NOAA.NDBC:LMDF1:1,2017-10-11T19:00:00Z,25.1760,-80.6330,1.5,11.78,1111122 
ENP,ioos.station.NOAA.NDBC:LMDF1:1,2017-10-11T20:00:00Z,25.1760,-80.6330,1.5,9.37,1111122 
ENP,ioos.station.NOAA.NDBC:LMDF1:1,2017-10-11T21:00:00Z,25.1760,-80.6330,1.5,9.5,1111122 
ENP,ioos.station.NOAA.NDBC:LMDF1:1,2017-10-11T22:00:00Z,25.1760,-80.6330,1.5,5.9,1111122 
ENP,ioos.station.NOAA.NDBC:LMDF1:1,2017-10-11T23:00:00Z,25.1760,-80.6330,1.5,11.67,1111122 
ENP,ioos.station.NOAA.NDBC:LMDF1:1,2017-10-12T00:00:00Z,25.1760,-80.6330,1.5,9.48,1111122 
ENP,ioos.station.NOAA.NDBC:LMDF1:1,2017-10-12T01:00:00Z,25.1760,-80.6330,1.5,5.37,1111122 
ENP,ioos.station.NOAA.NDBC:LMDF1:1,2017-10-12T03:00:00Z,25.1760,-80.6330,1.5,13.21,1111122 
ENP,ioos.station.NOAA.NDBC:LMDF1:1,2017-10-12T04:00:00Z,25.1760,-80.6330,1.5,11.28,1111122 
ENP,ioos.station.NOAA.NDBC:LMDF1:1,2017-10-12T05:00:00Z,25.1760,-80.6330,1.5,13.14,1111122 
ENP,ioos.station.NOAA.NDBC:LMDF1:1,2017-10-12T07:00:00Z,25.1760,-80.6330,1.5,13.09,1111122 
ENP,ioos.station.NOAA.NDBC:LMDF1:1,2017-10-12T08:00:00Z,25.1760,-80.6330,1.5,13.24,1111122 
ENP,ioos.station.NOAA.NDBC:LMDF1:1,2017-10-12T09:00:00Z,25.1760,-80.6330,1.5,12.23,1111122 
ENP,ioos.station.NOAA.NDBC:LMDF1:1,2017-10-12T11:00:00Z,25.1760,-80.6330,1.5,12.88,1111122 
ENP,ioos.station.NOAA.NDBC:LMDF1:1,2017-10-12T12:00:00Z,25.1760,-80.6330,1.5,13.53,1111122 
ENP,ioos.station.NOAA.NDBC:LMDF1:1,2017-10-12T13:00:00Z,25.1760,-80.6330,1.5,13.13,1111122 
ENP,ioos.station.NOAA.NDBC:LMDF1:1,2017-10-12T14:00:00Z,25.1760,-80.6330,1.5,13.16,1111122 
ENP,ioos.station.NOAA.NDBC:LMDF1:1,2017-10-12T15:00:00Z,25.1760,-80.6330,1.5,13.47,1111122 
ENP,ioos.station.NOAA.NDBC:LMDF1:1,2017-10-12T16:00:00Z,25.1760,-80.6330,1.5,12.73,1111122 
ENP,ioos.station.NOAA.NDBC:LMDF1:1,2017-10-12T17:00:00Z,25.1760,-80.6330,1.5,11.88,1111122 
ENP,ioos.station.NOAA.NDBC:LMDF1:1,2017-10-12T18:00:00Z,25.1760,-80.6330,1.5,11.83,1111122 
ENP,ioos.station.NOAA.NDBC:LMDF1:1,2017-10-12T19:00:00Z,25.1760,-80.6330,1.5,11.56,1111122 
ENP,ioos.station.NOAA.NDBC:LMDF1:1,2017-10-12T20:00:00Z,25.1760,-80.6330,1.5,11.72,1111122 
ENP,ioos.station.NOAA.NDBC:LMDF1:1,2017-10-12T21:00:00Z,25.1760,-80.6330,1.5,11.52,1111122 
ENP,ioos.station.NOAA.NDBC:LMDF1:1,2017-10-12T22:00:00Z,25.1760,-80.6330,1.5,11.52,1111122 
ENP,ioos.station.NOAA.NDBC:LMDF1:1,2017-10-12T23:00:00Z,25.1760,-80.6330,1.5,11.59,1111122 
ENP,ioos.station.NOAA.NDBC:LMDF1:1,2017-10-13T00:00:00Z,25.1760,-80.6330,1.5,11.99,1111122 
ENP,ioos.station.NOAA.NDBC:LMDF1:1,2017-10-13T01:00:00Z,25.1760,-80.6330,1.5,11.5,1111122 
ENP,ioos.station.NOAA.NDBC:LMDF1:1,2017-10-13T03:00:00Z,25.1760,-80.6330,1.5,11.59,1111122 
ENP,ioos.station.NOAA.NDBC:LMDF1:1,2017-10-13T04:00:00Z,25.1760,-80.6330,1.5,9.22,1111122 
ENP,ioos.station.NOAA.NDBC:LMDF1:1,2017-10-13T05:00:00Z,25.1760,-80.6330,1.5,11.14,1111122 
ENP,ioos.station.NOAA.NDBC:LMDF1:1,2017-10-13T07:00:00Z,25.1760,-80.6330,1.5,8.01,1111122 
ENP,ioos.station.NOAA.NDBC:LMDF1:1,2017-10-13T08:00:00Z,25.1760,-80.6330,1.5,11.41,1111122 
ENP,ioos.station.NOAA.NDBC:LMDF1:1,2017-10-13T09:00:00Z,25.1760,-80.6330,1.5,11.34,1111122 
ENP,ioos.station.NOAA.NDBC:LMDF1:1,2017-10-13T10:00:00Z,25.1760,-80.6330,1.5,10.23,1111122 
ENP,ioos.station.NOAA.NDBC:LMDF1:1,2017-10-13T12:00:00Z,25.1760,-80.6330,1.5,11.92,1111122 
ENP,ioos.station.NOAA.NDBC:LMDF1:1,2017-10-13T13:00:00Z,25.1760,-80.6330,1.5,11.7,1111122 
ENP,ioos.station.NOAA.NDBC:LMDF1:1,2017-10-13T14:00:00Z,25.1760,-80.6330,1.5,12.49,1111122 
ENP,ioos.station.NOAA.NDBC:LMDF1:1,2017-10-13T15:00:00Z,25.1760,-80.6330,1.5,12.0,1111122 
ENP,ioos.station.NOAA.NDBC:LMDF1:1,2017-10-13T16:00:00Z,25.1760,-80.6330,1.5,12.56,1111122 
ENP,ioos.station.NOAA.NDBC:LMDF1:1,2017-10-13T17:00:00Z,25.1760,-80.6330,1.5,12.94,1111122 